[[[{"header":{"parameterUnit":"kt","parameterCategory":2,"dx":1,"dy":1,"la1":30.253999710083008,"la2":30.299108505249023,"lo1":-89.0895004272461,"lo2":-89.04439544677734,"nx":28,"ny":28,"refTime":"2022-09-18T21:00:00:Z","depth":0,"parameterNumber":1,"parameterNumberName":"U-component_of_WINDS"},"data":[-1.0371,-1.0318,-1.0348,-1.0301,-1.0321,-1.0293,-1.0292,-1.0295,-1.0304,-1.0273,-1.0261,-1.0285,-1.0304,-1.0295,-1.0281,-1.0291,-1.028,-1.0241,-1.0258,-1.0414,-1.0437,-1.0459,-1.0472,-1.024,-1.024,-1.009,-1.0088,-1.0087,-1.0484,-1.0503,-1.0488,-1.0493,-1.048,-1.0538,-1.0546,-1.053,-1.0502,-1.0514,-1.0503,-1.0478,-1.0461,-1.0494,-1.0482,-1.0456,-1.0479,-1.045,-1.0448,-1.0449,-1.0619,-1.0633,-1.0431,-1.0431,-1.0431,-1.0431,-1.0431,-1.0431,-1.0696,-1.0664,-1.0685,-1.0668,-1.068,-1.0683,-1.0656,-1.0687,-1.0671,-1.0663,-1.0703,-1.0671,-1.0687,-1.0686,-1.0693,-1.0668,-1.0705,-1.068,-1.0672,-1.0663,-1.0648,-1.0852,-1.0668,-1.0669,-1.0669,-1.067,-1.067,0,-1.0859,-1.0887,-1.0875,-1.0871,-1.0861,-1.086,-1.0864,-1.0849,-1.0915,-1.0899,-1.0877,-1.0869,-1.0854,-1.0834,-1.0829,-1.0841,-1.0892,-1.0903,-1.0885,-1.086,-1.0841,-1.0845,-1.1114,-1.0906,-1.0908,-1.091,-1.0911,-1.0912,-1.107,-1.103,-1.1067,-1.1054,-1.1064,-1.1041,-1.1034,-1.1096,-1.1085,-1.1098,-1.1065,-1.1049,-1.1037,-1.0996,-1.1028,-1.1015,-1.1038,-1.0955,-1.1036,-1.1017,-1.1029,-1.1028,-1.1022,-1.0934,-1.0932,-1.0929,-1.0927,0,-1.1185,-1.1235,-1.1182,-1.1222,-1.1231,-1.1184,-1.1217,-1.1187,-1.1219,-1.1181,-1.1176,-1.1224,-1.1201,-1.1248,-1.123,-1.1254,-1.1173,-1.12,-1.1168,-1.1173,-1.1099,-1.1102,-1.086,-1.0829,-1.1078,-1.1076,-1.1074,0,-1.1381,-1.1325,-1.1402,-1.1368,-1.1309,-1.1372,-1.1311,-1.1332,-1.1347,-1.1318,-1.1388,-1.1358,-1.1423,-1.1399,-1.1435,-1.1379,-1.1377,-1.1389,-1.1398,-1.1378,-1.1376,-1.1366,-1.1374,-1.1427,-1.1428,-1.1429,-1.143,0,-1.1549,-1.1527,-1.1474,-1.1476,-1.1511,-1.1484,-1.1497,-1.1514,-1.1505,-1.1502,-1.1496,-1.1488,-1.1481,-1.1472,-1.1517,-1.157,-1.1451,-1.1532,-1.1463,-1.1461,-1.1427,-1.1427,-1.1208,-1.1432,-1.1432,-1.1433,-1.1433,0,-1.1712,-1.171,-1.1627,-1.1657,-1.1648,-1.1613,-1.1609,-1.159,-1.1603,-1.1623,-1.1621,-1.167,-1.1628,-1.1705,-1.1647,-1.1702,-1.1691,-1.1701,-1.1697,-1.1689,-1.1771,-1.1633,-1.1427,-1.1403,-1.1691,-1.1693,-1.1695,0,-1.1888,-1.1819,-1.1872,-1.1791,-1.1765,-1.1844,-1.1806,-1.1816,-1.184,-1.182,-1.1847,-1.1822,-1.189,-1.1888,-1.1855,-1.1878,-1.1807,-1.1891,-1.1852,-1.185,-1.184,-1.1653,-1.1606,-1.1469,-1.1724,-1.1721,-1.1719,0,-1.203,-1.2074,-1.2056,-1.2059,-1.2083,-1.2061,-1.2019,-1.201,-1.1993,-1.1997,-1.1959,-1.1929,-1.1977,-1.1973,-1.2011,-1.1973,-1.1858,-1.2029,-1.203,-1.1991,-1.1744,-1.17,-1.1676,-1.1892,-1.1888,-1.1886,-1.1741,0,-1.2254,-1.2226,-1.2182,-1.2188,-1.218,-1.2133,-1.2182,-1.2167,-1.2205,-1.2231,-1.218,-1.2198,-1.2184,-1.2173,-1.2209,-1.2109,-1.213,-1.2182,-1.2253,-1.2132,-1.2085,-1.2067,-1.232,-1.2322,-1.2324,-1.2326,0,0,-1.2407,-1.2368,-1.2426,-1.2388,-1.2383,-1.2463,-1.2408,-1.2413,-1.2419,-1.2413,-1.2456,-1.2412,-1.2423,-1.2354,-1.2321,-1.2317,-1.2302,-1.2341,-1.2191,-1.2176,-1.2162,-1.2111,-1.2091,-1.233,-1.233,-1.2331,-1.2332,0,-1.2498,-1.2514,-1.246,-1.2469,-1.2482,-1.2513,-1.2501,-1.2527,-1.254,-1.2492,-1.2555,-1.253,-1.2493,-1.2495,-1.2492,-1.2354,-1.2399,-1.2347,-1.2255,-1.221,-1.2192,-1.2177,-1.2123,-1.2103,-1.2337,-1.2336,-1.2336,0,-1.2641,-1.2663,-1.2643,-1.2639,-1.2648,-1.2618,-1.2709,-1.2674,-1.2652,-1.2737,-1.2686,-1.2701,-1.2709,-1.2639,-1.261,-1.2646,-1.2484,-1.2545,-1.2533,-1.2529,-1.2487,-1.2466,-1.2447,-1.2698,-1.2699,-1.27,0,0,-1.2712,-1.2687,-1.2727,-1.2662,-1.2663,-1.2708,-1.2697,-1.2733,-1.274,-1.2742,-1.2762,-1.2765,-1.2745,-1.2729,-1.2712,-1.263,-1.2633,-1.2587,-1.257,-1.2556,-1.2544,-1.2499,-1.2478,-1.2704,-1.2704,-1.2704,0,0,-1.2744,-1.2788,-1.2826,-1.2757,-1.2763,-1.2795,-1.2753,-1.2798,-1.2788,-1.2798,-1.2855,-1.2858,-1.2794,-1.2806,-1.2855,-1.2737,-1.2808,-1.2798,-1.273,-1.271,-1.2693,-1.2688,-1.2944,0,0,0,0,0,-1.286,-1.2784,-1.2818,-1.2813,-1.2806,-1.2778,-1.2777,-1.2823,-1.2873,-1.2838,-1.2862,-1.2913,-1.2844,-1.2889,-1.2882,-1.2824,-1.2756,-1.2746,-1.2738,-1.2632,-1.261,-1.2591,0,0,0,0,0,0,-1.2859,-1.2854,-1.282,-1.2848,-1.2847,-1.2781,-1.2875,-1.2885,-1.2878,-1.2888,-1.2907,-1.2913,-1.2951,-1.2895,-1.2888,-1.2833,-1.2946,-1.2752,-1.2744,-1.2737,-1.2625,-1.2606,-1.2591,0,0,0,0,0,-1.2858,-1.2854,-1.2831,-1.285,-1.2849,-1.2892,-1.2878,-1.2888,-1.2882,-1.2918,-1.2926,-1.2918,-1.2948,-1.2945,-1.2891,-1.2835,-1.2951,-1.2949,-1.2747,-1.2741,-1.2735,-1.2616,0,0,0,0,0,0,-1.2858,-1.2862,-1.2832,-1.2833,-1.2882,-1.2897,-1.2901,-1.2889,-1.2913,-1.2921,-1.2932,-1.294,-1.2945,-1.2944,-1.2941,-1.2833,-1.2955,-1.2953,-1.2951,-1.2742,-1.2737,-1.2733,0,0,0,0,0,0,-1.2864,-1.2862,-1.2832,-1.287,-1.2877,-1.2901,-1.2904,-1.2865,-1.2912,-1.2926,-1.2934,-1.2935,-1.2947,-1.2942,-1.294,-1.2877,-1.2958,-1.2956,-1.2954,-1.2953,-1.2738,-1.2735,0,0,0,0,0,0,-1.2864,-1.2863,-1.287,-1.2875,-1.2881,-1.2899,-1.2867,-1.2856,-1.2948,-1.2924,-1.2957,-1.2961,-1.2944,-1.2944,-1.2939,-1.2876,-1.2877,-1.2958,-1.2957,-1.2955,-1.2954,0,0,0,0,0,0,0,-1.2864,-1.2865,-1.2824,-1.2879,-1.2884,-1.2846,-1.2846,-1.2846,-1.2949,-1.2952,-1.2956,-1.296,-1.2973,-1.297,-1.2967,-1.2875,0,0,-1.2959,-1.2957,0,0,0,0,0,0,0,0,-1.2867,-1.2866,-1.2824,-1.2824,-1.2825,-1.2846,-1.2846,-1.2846,-1.2949,-1.2952,-1.2955,-1.2958,-1.2972,-1.297,-1.2968,0,0,0,0,0,0,0,0,0,0,0,0,0,0,0,-1.2824,-1.2824,0,-1.2846,-1.2846,-1.2846,-1.295,-1.2952,-1.2955,-1.2957,-1.2972,-1.297,-1.2968,0,0,0,0,0,0,0,0,0,0,0,0,0,0,0,0,0,0,0,0,0,0,0,0,0,0,0,0,0,0,0,0,0,0,0,0,0,0,0,0,0,0,0,0,0,0,0,0,0,0,0,0,0,0,0,0,0,0,0,0,0,0,0,0,0,0,0,0,0]}],[{"header":{"parameterUnit":"kt","parameterCategory":2,"dx":1,"dy":1,"la1":30.253999710083008,"la2":30.299108505249023,"lo1":-89.0895004272461,"lo2":-89.04439544677734,"nx":28,"ny":28,"refTime":"2022-09-18T21:00:00:Z","depth":0,"parameterNumber":2,"parameterNumberName":"V-component_of_WINDS"},"data":[-2.6413,-2.646,-2.6517,-2.6598,-2.6663,-2.6729,-2.677,-2.6831,-2.6893,-2.6979,-2.7039,-2.7102,-2.7188,-2.7274,-2.7342,-2.7369,-2.7394,-2.7371,-2.7406,-2.7457,-2.7468,-2.7479,-2.747,-2.7375,-2.7375,-2.7344,-2.7343,-2.7343,-2.6451,-2.6515,-2.6574,-2.667,-2.6721,-2.6779,-2.686,-2.6899,-2.6956,-2.7033,-2.7094,-2.7175,-2.7246,-2.7341,-2.7419,-2.7445,-2.7476,-2.7462,-2.746,-2.7473,-2.7531,-2.7521,-2.7436,-2.7436,-2.7436,-2.7436,-2.7436,-2.7436,-2.6536,-2.6562,-2.6652,-2.6717,-2.678,-2.6844,-2.6879,-2.6954,-2.7013,-2.7099,-2.7156,-2.7222,-2.731,-2.7431,-2.7485,-2.754,-2.7565,-2.7567,-2.7568,-2.7567,-2.7558,-2.7597,-2.7556,-2.7556,-2.7557,-2.7557,-2.7557,0,-2.6615,-2.6661,-2.672,-2.6797,-2.6847,-2.6912,-2.698,-2.7004,-2.7119,-2.7162,-2.723,-2.7279,-2.7376,-2.7446,-2.7532,-2.7589,-2.7651,-2.7664,-2.7666,-2.7638,-2.7604,-2.7623,-2.7715,-2.7663,-2.7665,-2.7665,-2.7666,-2.7667,-2.6705,-2.6727,-2.6848,-2.6882,-2.6933,-2.6987,-2.7031,-2.713,-2.7172,-2.7272,-2.729,-2.7362,-2.7424,-2.7524,-2.7611,-2.7684,-2.7714,-2.7689,-2.7725,-2.77,-2.7714,-2.7711,-2.7715,-2.7679,-2.7677,-2.7676,-2.7675,0,-2.675,-2.6841,-2.6894,-2.7011,-2.7041,-2.706,-2.7161,-2.7191,-2.726,-2.7311,-2.7329,-2.7437,-2.7501,-2.7594,-2.7686,-2.7732,-2.7768,-2.7797,-2.774,-2.775,-2.7736,-2.7736,-2.7676,-2.7674,-2.7774,-2.7773,-2.7772,0,-2.6861,-2.6886,-2.7021,-2.7046,-2.7079,-2.7177,-2.7208,-2.727,-2.7345,-2.7386,-2.7472,-2.7508,-2.762,-2.7671,-2.7739,-2.7785,-2.7802,-2.784,-2.7857,-2.7831,-2.7826,-2.7853,-2.7857,-2.7895,-2.7896,-2.7896,-2.7896,0,-2.692,-2.7022,-2.7064,-2.7102,-2.7227,-2.7246,-2.7299,-2.7384,-2.7425,-2.7493,-2.7521,-2.7594,-2.7633,-2.7689,-2.7775,-2.7796,-2.7833,-2.788,-2.7871,-2.7869,-2.7872,-2.7871,-2.7797,-2.7896,-2.7896,-2.7896,-2.7896,0,-2.7023,-2.7089,-2.7136,-2.7244,-2.7266,-2.7294,-2.7371,-2.7416,-2.7499,-2.7544,-2.7598,-2.7665,-2.7711,-2.7752,-2.7819,-2.7822,-2.7857,-2.7898,-2.7899,-2.7906,-2.7948,-2.7894,-2.7815,-2.781,-2.7917,-2.7918,-2.7918,0,-2.7067,-2.7138,-2.7222,-2.7265,-2.731,-2.7403,-2.7436,-2.7506,-2.7568,-2.7616,-2.7685,-2.7739,-2.7788,-2.7817,-2.7839,-2.7911,-2.7907,-2.7915,-2.7984,-2.7986,-2.7959,-2.7888,-2.7852,-2.7822,-2.7921,-2.7921,-2.7921,0,-2.7111,-2.7261,-2.7263,-2.731,-2.7416,-2.7454,-2.7492,-2.7567,-2.7594,-2.7663,-2.7697,-2.7775,-2.7816,-2.7862,-2.7923,-2.7941,-2.7913,-2.7981,-2.7985,-2.7966,-2.793,-2.7897,-2.7891,-2.7951,-2.795,-2.795,-2.7923,0,-2.7245,-2.7291,-2.7299,-2.7397,-2.744,-2.7471,-2.7566,-2.76,-2.7655,-2.7718,-2.777,-2.7849,-2.7924,-2.7941,-2.7994,-2.8003,-2.8015,-2.8057,-2.8101,-2.8054,-2.8047,-2.8045,-2.8103,-2.8105,-2.8107,-2.8108,0,0,-2.7264,-2.7331,-2.742,-2.7459,-2.7501,-2.7594,-2.7619,-2.7671,-2.7772,-2.7799,-2.7825,-2.7944,-2.8007,-2.806,-2.8052,-2.8082,-2.8093,-2.8104,-2.8076,-2.8072,-2.8068,-2.806,-2.8055,-2.8111,-2.8112,-2.8112,-2.8113,0,-2.7332,-2.7393,-2.7415,-2.7473,-2.7561,-2.7627,-2.7632,-2.7735,-2.7777,-2.7827,-2.7902,-2.7945,-2.8035,-2.8092,-2.8133,-2.8102,-2.8155,-2.8117,-2.8069,-2.8088,-2.8082,-2.8077,-2.8067,-2.8062,-2.8116,-2.8116,-2.8116,0,-2.7392,-2.7468,-2.7488,-2.7586,-2.7644,-2.7687,-2.7758,-2.7799,-2.7833,-2.7931,-2.7979,-2.8035,-2.8118,-2.8155,-2.8175,-2.8199,-2.8207,-2.822,-2.8213,-2.8216,-2.824,-2.8232,-2.8226,-2.8313,-2.8314,-2.8314,0,0,-2.7437,-2.748,-2.759,-2.7607,-2.7639,-2.7735,-2.7767,-2.7824,-2.7896,-2.7925,-2.7997,-2.8066,-2.812,-2.8154,-2.8209,-2.8236,-2.8261,-2.824,-2.8231,-2.8223,-2.8222,-2.8243,-2.8236,-2.8315,-2.8315,-2.8315,0,0,-2.7458,-2.7587,-2.7629,-2.766,-2.7727,-2.7836,-2.7843,-2.7897,-2.7956,-2.7963,-2.806,-2.8082,-2.8118,-2.817,-2.8174,-2.8226,-2.8268,-2.8269,-2.8191,-2.818,-2.8171,-2.8157,-2.8256,0,0,0,0,0,-2.7574,-2.7572,-2.7608,-2.7627,-2.775,-2.7816,-2.7833,-2.7913,-2.7942,-2.7946,-2.8016,-2.8071,-2.8193,-2.8199,-2.8217,-2.821,-2.833,-2.8327,-2.8325,-2.823,-2.8219,-2.8208,0,0,0,0,0,0,-2.7583,-2.7606,-2.7608,-2.7716,-2.7744,-2.7817,-2.7883,-2.7905,-2.7943,-2.7953,-2.8056,-2.8074,-2.8144,-2.8196,-2.821,-2.8202,-2.8251,-2.8329,-2.8326,-2.8324,-2.8226,-2.8217,-2.8208,0,0,0,0,0,-2.759,-2.7608,-2.7784,-2.7717,-2.7741,-2.7848,-2.7884,-2.7903,-2.7934,-2.804,-2.806,-2.7991,-2.8141,-2.8159,-2.8205,-2.8194,-2.8241,-2.8246,-2.8327,-2.8325,-2.8324,-2.8222,0,0,0,0,0,0,-2.7595,-2.7626,-2.7791,-2.7802,-2.7723,-2.7845,-2.7867,-2.79,-2.802,-2.804,-2.798,-2.7986,-2.8139,-2.8154,-2.8167,-2.8186,-2.8233,-2.8239,-2.8242,-2.8326,-2.8325,-2.8323,0,0,0,0,0,0,-2.7617,-2.7635,-2.7796,-2.78,-2.7812,-2.7843,-2.7862,-2.7912,-2.802,-2.7953,-2.7962,-2.7981,-2.8119,-2.815,-2.8161,-2.8235,-2.8227,-2.8232,-2.8236,-2.8238,-2.8325,-2.8324,0,0,0,0,0,0,-2.7626,-2.7641,-2.7798,-2.7807,-2.7817,-2.7942,-2.7888,-2.801,-2.8023,-2.7946,-2.8026,-2.8028,-2.8114,-2.8127,-2.8156,-2.8225,-2.8233,-2.8228,-2.8231,-2.8233,-2.8235,0,0,0,0,0,0,0,-2.7633,-2.7512,-2.7728,-2.7812,-2.7822,-2.7899,-2.7902,-2.7905,-2.8023,-2.8024,-2.8026,-2.8027,-2.8198,-2.8204,-2.821,-2.8217,0,0,-2.8227,-2.823,0,0,0,0,0,0,0,0,-2.7507,-2.7511,-2.7728,-2.7731,-2.7733,-2.79,-2.7902,-2.7904,-2.8023,-2.8024,-2.8026,-2.8027,-2.82,-2.8204,-2.8209,0,0,0,0,0,0,0,0,0,0,0,0,0,0,0,-2.7729,-2.773,0,-2.79,-2.7902,-2.7904,-2.8023,-2.8024,-2.8025,-2.8026,-2.8201,-2.8205,-2.8209,0,0,0,0,0,0,0,0,0,0,0,0,0,0,0,0,0,0,0,0,0,0,0,0,0,0,0,0,0,0,0,0,0,0,0,0,0,0,0,0,0,0,0,0,0,0,0,0,0,0,0,0,0,0,0,0,0,0,0,0,0,0,0,0,0,0,0,0,0]}]]]